RH
82 83 85 86 88 88 88 87 87 88 89 87 85 85 87 89 90 86 91 70 71 61 57 65 69 73 66 78 71 75 95 79 67 63 60 44 43 34 28 30 28 28 28 38 73
81 80 81 82 85 86 82 79 80 80 81 81 81 87 90 86 80 89 72 67 62 61 65 77 84 73 75 81 78 82 78 66 51 50 55 48 48 44 39 35 32 28 31 82 86
75 77 76 76 76 75 73 75 75 75 74 73 77 84 87 70 83 76 52 52 56 50 61 69 76 62 79 72 76 79 80 57 50 43 46 56 50 45 44 47 37 33 30 84 81
74 73 75 74 73 73 73 72 72 76 71 74 77 83 83 69 91 63 61 66 71 54 48 44 53 73 79 80 67 90 66 62 61 58 62 65 48 59 50 48 37 35 34 79 78
75 75 75 74 74 72 74 76 77 74 76 77 77 81 70 85 81 46 57 54 50 44 51 60 72 76 92 85 79 86 74 68 63 62 59 54 61 64 54 49 44 42 42 44 63
75 75 76 77 76 77 78 77 75 76 77 77 78 85 76 88 49 53 51 52 59 66 70 65 66 62 82 87 91 81 88 78 65 62 60 69 66 57 57 45 53 54 51 46 60
76 78 81 78 79 79 80 78 75 79 75 77 80 70 85 80 54 54 52 55 56 65 63 62 50 64 85 90 69 82 94 77 65 62 69 54 85 72 47 51 51 46 51 50 45
77 78 82 83 83 83 83 81 81 79 74 71 79 81 88 56 55 46 50 49 48 52 52 48 48 61 77 80 80 74 74 79 52 51 66 88 94 63 58 58 49 45 40 47 44
78 81 84 86 85 85 83 80 79 77 69 67 75 79 86 51 60 61 54 39 33 46 47 50 54 69 68 93 87 88 86 74 62 66 82 85 95 67 49 61 68 58 55 56 50
79 83 90 89 86 82 80 75 76 72 69 63 69 76 67 72 64 61 52 39 40 42 56 72 80 95 87 90 84 82 93 76 74 56 52 78 80 53 45 55 58 58 59 56 51
79 81 83 85 79 77 88 92 85 82 78 90 87 84 71 62 57 65 60 63 52 46 71 75 82 81 74 86 77 77 83 93 70 55 92 81 74 57 47 48 54 48 48 56 50
79 80 81 80 78 71 82 83 81 84 92 71 68 74 71 64 61 54 58 64 58 73 74 63 76 56 51 50 56 74 85 80 71 62 74 63 54 42 42 43 47 46 40 52 50
78 79 82 82 78 83 88 93 78 77 95 75 66 64 59 63 64 60 39 51 50 57 58 66 50 38 39 43 51 65 82 65 54 38 40 49 54 47 32 30 40 43 43 40 45
78 78 81 79 82 92 95 86 88 87 89 59 48 50 55 64 58 48 35 45 57 63 56 52 40 37 44 42 43 60 43 44 41 46 62 44 59 45 39 39 34 35 43 42 42
78 77 79 78 94 92 90 91 89 82 66 51 51 42 48 56 52 44 36 52 60 57 53 49 45 48 47 45 41 47 44 45 44 51 57 49 83 59 36 31 36 35 34 35 44
77 78 79 89 93 90 93 96 81 80 58 63 55 59 63 57 58 46 44 50 51 61 61 60 46 45 47 37 40 40 46 48 66 68 82 55 60 51 38 54 60 56 64 64 62
77 77 84 81 96 91 97 84 87 77 63 71 68 73 78 76 60 42 44 46 46 62 62 49 41 36 42 41 43 46 54 78 77 85 74 54 47 44 50 54 57 57 50 59 60
80 77 84 82 95 96 86 86 69 60 74 79 81 79 77 68 54 54 50 52 47 53 74 70 52 44 43 48 49 49 56 80 70 73 49 45 44 29 52 46 49 48 48 46 52
78 95 94 91 90 89 90 90 74 67 84 84 72 73 74 55 66 58 60 56 52 56 76 85 65 51 48 46 45 43 76 60 77 76 86 68 52 39 56 38 48 52 50 49 52
95 96 94 93 93 88 94 77 79 87 88 82 82 76 94 77 70 75 68 50 51 62 68 74 88 50 51 48 51 45 52 80 93 98 91 63 57 42 75 42 48 49 52 50 59
96 98 89 92 87 94 92 89 83 80 81 86 85 90 90 88 80 75 76 55 48 70 72 85 80 64 56 53 55 62 72 84 83 92 93 86 37 61 72 55 58 52 53 54 63
96 96 95 94 96 94 98 93 76 83 89 90 87 91 87 82 91 85 76 64 50 64 72 77 89 96 74 57 55 65 81 82 86 78 90 89 58 24 40 56 56 59 52 57 58
99 98 93 96 99 98 90 90 87 86 87 92 88 78 83 90 96 89 74 57 60 65 81 80 87 94 72 69 64 73 84 85 86 89 92 89 57 36 32 48 61 60 58 64 57
100 99 99 99 97 94 89 92 94 79 86 85 90 85 93 96 88 96 80 59 61 67 56 69 86 81 78 73 83 76 83 74 82 93 74 71 55 43 40 44 63 63 68 64 58
100 96 90 98 96 93 93 96 97 95 88 88 95 85 87 97 95 93 84 78 69 60 76 93 97 92 74 63 71 78 84 87 89 79 88 55 56 47 50 52 70 64 70 65 57
99 99 98 99 95 96 93 95 91 92 89 96 97 84 92 97 84 86 94 94 89 73 91 98 94 92 89 79 77 85 75 84 86 76 80 71 71 52 61 77 69 63 62 69 61
98 94 94 85 98 98 93 88 90 89 78 75 82 93 97 85 76 74 72 79 95 95 91 97 95 95 92 74 70 84 60 58 67 74 80 95 75 73 68 64 70 68 62 66 68
Wind_Speed
20 20 20 20 20 18 19 19 17 18 18 16 17 18 18 17 16 3 7 8 8 7 4 0 1 2 3 2 2 4 9 16 20 21 18 9 8 8 5 11 6 6 4 2 5
20 21 20 20 18 18 16 18 18 18 17 16 17 16 15 4 3 5 12 10 10 11 3 2 1 1 2 5 3 7 13 21 18 18 14 14 16 18 10 7 8 6 3 3 9
21 20 20 21 20 20 19 17 18 19 18 18 17 14 3 6 2 4 9 2 7 2 4 2 3 3 5 5 6 7 15 19 19 21 20 18 19 8 18 21 7 7 5 5 7
21 21 20 20 20 19 18 19 18 18 19 17 16 13 9 1 5 5 10 11 13 9 4 2 4 2 5 6 8 14 17 19 19 17 17 22 23 22 25 23 9 10 7 4 9
22 22 22 21 20 20 18 17 17 18 18 17 14 9 5 3 3 4 11 9 10 1 5 4 3 3 6 6 10 14 16 17 18 19 18 22 25 24 30 10 7 10 9 12 12
23 23 24 23 21 19 17 16 17 14 14 17 12 15 3 3 3 4 5 4 5 2 3 1 4 4 6 6 8 10 15 17 16 21 22 22 24 22 25 18 14 15 16 11 11
24 24 23 24 22 18 16 15 14 11 10 17 1 6 3 0 2 5 4 2 1 3 2 2 3 3 3 6 6 9 12 16 13 11 18 15 18 26 19 13 17 20 15 13 16
24 25 25 23 19 15 14 13 7 9 8 8 11 3 3 1 1 5 3 2 2 5 5 4 5 1 4 3 6 8 8 8 5 15 7 11 12 12 16 16 13 18 21 16 19
25 26 25 21 16 13 10 9 8 5 6 5 3 2 3 2 4 4 3 1 1 4 1 8 5 2 4 4 6 5 8 10 12 8 9 6 11 14 18 9 15 14 12 11 14
24 25 23 20 15 11 9 6 4 5 1 1 3 4 4 3 3 4 1 3 3 3 3 4 2 2 2 4 5 7 9 7 14 6 17 16 19 12 13 10 14 17 15 13 15
22 23 24 21 19 14 6 1 5 6 8 3 3 1 1 6 2 2 3 3 2 2 1 1 1 4 8 9 12 12 14 15 16 16 8 14 17 17 17 13 16 15 15 12 12
21 22 21 20 14 16 5 6 4 2 4 2 1 2 2 2 3 2 2 3 2 1 2 2 3 6 7 11 12 9 14 15 11 9 6 15 19 21 16 15 16 18 15 13 12
21 22 23 19 6 7 6 4 4 4 1 3 1 2 3 1 1 4 4 3 2 1 4 4 5 5 6 8 8 8 8 14 15 13 8 8 11 6 10 11 11 15 16 11 12
20 22 22 21 5 1 3 7 5 2 5 3 2 2 1 1 3 4 5 2 2 2 3 4 3 2 6 5 6 12 3 6 9 9 5 5 8 8 9 12 10 8 7 9 11
18 21 16 15 1 4 5 7 6 2 4 2 1 1 4 1 4 2 4 1 4 4 2 8 4 6 5 6 2 7 6 7 6 4 4 1 1 8 8 12 17 16 16 16 5
14 18 13 6 3 2 6 6 2 7 4 2 1 5 5 4 2 6 1 0 2 1 2 8 4 3 4 3 2 6 4 4 2 1 2 1 2 7 9 14 18 19 18 18 20
12 11 6 2 3 7 5 2 6 6 1 2 2 3 1 4 4 3 4 4 1 5 4 5 3 4 1 2 1 5 4 4 6 4 5 5 4 5 10 12 15 16 19 18 19
10 5 3 1 4 5 3 6 5 3 3 1 1 3 1 3 2 4 4 3 1 3 1 2 6 2 4 1 2 2 3 5 4 3 3 9 6 3 4 11 12 13 14 16 19
5 2 2 4 5 3 5 5 7 5 1 2 2 2 3 1 1 4 2 3 3 5 5 3 5 4 1 2 2 2 2 2 1 1 1 5 6 5 10 13 16 17 18 18 17
1 2 2 6 5 3 6 4 3 1 2 1 3 2 3 2 3 4 3 3 3 3 3 3 4 1 5 1 0 2 2 0 3 3 3 5 6 6 9 15 17 19 18 18 17
3 4 3 6 2 5 4 5 4 2 2 3 4 2 5 2 4 2 5 5 3 2 3 4 4 5 3 1 2 1 1 4 3 1 2 4 5 7 5 7 13 16 17 18 18
2 4 4 4 5 2 1 2 5 3 1 3 2 3 5 4 3 5 6 5 1 4 3 3 4 3 8 4 4 1 4 4 5 6 3 2 10 9 4 5 12 16 16 17 16
1 3 4 4 2 2 2 4 4 2 3 3 5 6 3 4 3 5 4 5 5 6 6 6 1 3 7 6 2 2 3 4 3 3 8 4 9 4 16 13 11 15 16 14 16
3 3 1 2 1 1 2 4 4 3 5 4 3 2 3 4 7 4 4 4 2 5 9 5 6 8 8 7 4 1 3 5 5 4 5 14 23 22 13 15 14 13 15 13 13
2 5 4 2 3 3 2 5 3 4 3 4 3 9 6 5 3 8 5 6 7 9 2 4 6 6 10 6 5 6 8 8 11 14 10 21 19 22 16 15 13 13 14 15 15
4 3 2 2 3 5 7 5 8 5 4 5 10 6 7 8 8 9 5 5 7 1 5 4 6 5 7 9 11 14 16 13 15 14 14 19 24 15 13 8 10 12 13 15 15
2 0 3 4 4 5 6 7 7 7 7 7 6 6 10 15 13 13 10 11 7 6 5 4 3 4 5 4 5 9 16 17 6 7 8 8 9 8 7 8 8 8 12 13 15
Wind_Direction
325 324 321 318 314 312 308 312 322 317 304 300 301 296 288 285 291 141 234 231 195 258 266 334 41 113 121 202 222 307 253 255 257 254 266 294 267 266 245 243 228 216 210 258 150
335 331 330 330 330 328 339 329 324 321 320 318 314 306 298 36 90 249 254 235 246 260 286 228 314 176 183 192 200 200 250 259 266 269 268 260 253 259 270 256 246 243 241 50 156
334 333 333 330 329 327 323 323 321 316 315 316 311 315 98 137 34 284 325 213 162 13 277 280 218 166 227 190 200 212 248 258 264 273 283 285 262 247 247 250 234 242 273 166 187
334 332 330 328 324 323 323 323 322 317 319 317 316 332 145 171 291 5 53 86 40 12 330 99 355 295 254 245 231 258 249 262 273 275 276 268 268 270 249 255 246 239 247 187 202
335 332 329 325 321 320 320 320 317 322 329 320 307 131 111 88 225 26 51 49 62 336 61 55 345 319 269 311 312 272 284 281 288 295 275 267 263 264 261 267 255 261 257 249 234
335 331 327 324 320 317 317 319 322 330 347 340 310 149 125 226 105 32 62 118 129 99 316 205 173 137 269 252 283 319 319 304 298 288 278 273 266 260 261 256 252 258 258 250 246
336 333 330 328 320 316 317 320 327 325 5 342 128 126 153 257 31 320 333 337 163 157 132 201 258 169 3 290 319 300 303 302 281 293 292 252 267 259 276 258 259 255 258 246 239
340 339 336 332 329 325 323 332 329 341 344 356 107 89 89 50 301 27 58 29 107 150 162 226 162 191 212 264 290 282 265 287 281 316 318 7 268 292 349 356 284 240 269 251 239
345 346 344 342 342 338 347 337 323 334 350 348 42 334 73 332 33 329 72 91 223 114 128 63 94 216 206 238 274 226 269 276 305 59 1 1 299 308 306 315 319 306 285 285 262
351 353 355 349 351 0 345 1 355 341 304 30 87 61 12 327 286 308 275 26 55 37 52 61 109 236 230 224 275 297 291 280 296 302 304 298 283 285 276 248 253 272 277 269 262
352 355 1 6 1 358 356 25 14 6 31 66 292 268 336 302 297 329 21 37 23 114 224 49 37 245 239 220 259 279 288 290 290 296 303 279 274 280 276 263 264 262 239 250 263
353 350 349 354 8 18 29 64 64 318 324 31 33 296 272 262 4 328 83 92 93 150 118 15 256 250 285 285 271 253 283 290 290 288 249 280 288 292 274 257 240 250 262 229 250
355 350 345 343 354 44 71 57 334 333 260 295 224 251 264 80 306 264 154 159 145 221 193 192 251 321 289 305 296 252 260 286 291 329 291 325 292 297 299 294 257 250 262 263 239
355 355 348 338 67 343 40 332 338 290 74 293 291 273 165 219 286 211 208 174 207 260 320 238 274 262 290 278 271 284 287 321 317 336 311 38 294 303 309 327 337 329 274 293 305
357 358 3 35 343 44 299 319 313 63 26 229 312 138 306 215 305 233 204 105 223 226 91 257 280 301 281 258 274 255 314 292 305 284 296 329 132 273 315 8 8 358 8 1 281
355 1 2 20 38 230 299 301 66 43 271 27 30 1 10 359 288 317 279 187 246 301 228 257 285 238 227 287 254 305 327 15 29 28 341 306 22 288 15 22 20 21 13 5 353
346 10 39 356 333 315 314 32 32 117 59 349 332 3 1 294 315 16 322 320 237 357 334 326 295 296 290 311 339 28 43 332 354 4 233 17 329 293 27 23 23 15 6 4 1
335 42 10 103 304 313 21 46 86 226 265 2 283 294 329 339 8 327 304 303 114 131 86 72 332 349 344 119 264 303 151 154 256 254 313 331 242 149 7 16 12 6 1 2 356
28 16 17 311 330 16 62 48 211 225 211 344 309 27 320 340 298 339 239 235 241 178 173 134 266 305 226 311 138 251 236 187 257 236 256 274 284 251 4 6 4 359 351 353 353
13 22 328 308 337 55 78 239 241 234 132 143 174 155 245 271 344 49 303 217 264 192 133 200 322 257 288 330 252 173 144 347 17 281 287 259 269 261 340 347 352 349 345 341 344
39 12 280 312 53 45 147 229 291 246 192 169 202 253 226 251 170 226 254 277 239 150 94 130 131 283 329 208 259 359 164 68 112 194 281 292 268 217 209 7 346 336 342 334 338
53 342 329 355 51 38 232 281 319 262 199 251 220 218 216 195 233 232 236 227 197 166 211 184 145 246 236 285 253 296 184 114 114 292 219 256 267 292 109 15 355 352 339 326 330
117 276 4 5 107 333 286 279 263 254 217 203 238 204 161 215 260 215 255 269 254 207 196 189 193 352 338 354 21 165 170 127 125 111 233 243 263 149 348 341 345 347 321 321 326
85 313 329 26 28 148 295 272 272 257 248 207 247 154 184 219 228 264 243 269 282 214 234 175 186 180 215 203 154 215 244 212 163 220 262 244 276 296 308 320 327 326 298 309 317
125 231 186 232 216 204 140 185 261 284 222 199 277 226 211 251 221 229 250 265 263 243 169 174 235 190 244 216 191 215 218 211 211 235 230 272 273 287 299 301 302 296 290 314 323
156 172 173 227 140 177 203 196 226 234 180 229 232 244 218 239 209 264 255 202 226 318 186 186 259 200 255 222 221 247 246 225 224 234 238 257 274 267 262 264 280 291 303 306 315
163 101 139 203 175 173 210 211 212 159 250 223 212 256 257 247 245 256 259 257 233 196 201 222 218 207 250 209 214 269 246 235 207 192 172 213 228 214 274 285 279 288 296 293 296